STARLINK-11562, 62918

Orbit data source: Space-Track

STARLINK-11562, 62918 is a payload satellite owned by SpaceX/Seattle (US) in LEO that was launched on Sat, 08 Feb 2025 UTC via an FALCON 9 launch vehicle from the Air Force Eastern Test Range (AFETR). Payload-class satellites include a variety of spacecraft equipped with specific instruments for various scientific and technological missions. These include communications satellites like Starlink; space stations such as the ISS; scientific satellites like the Hubble; Earth observation satellites from companies like Planet Labs, Umbra, and HawkEye 360; GPS; miniature CubeSats for education and research; and military/defense satellites.

Loading next visibility...
Identifier
62918, 2025-027M
Orbit
LEO
Country
Flag of USUS
Related business
Manufacturer
SpaceX/Seattle
Mission
Operational Commercial Communications
Bus & Motor
STARLINK V2MD, Unknown motor
Mass
960 kg wet, ~910 kg dry
Launch date (UTC)
2025-02-08 (9 months ago)
Launch vehicle
FALCON 9
Launch site
Air Force Eastern Test Range (AFETR)
Object type
Payload
Rocket body
Debris
Shape & HBR
Box + 2 Pan, 18.1 m
Radar Cross Section
36.964 m², Large (>1 m²)

Expand to show TLE details & history
Last TLE update: 1 day ago

TLE from 1 day ago
0 STARLINK-11562
1 62918U 25027M   25301.36948587  .00191852  00000-0  14480-2 0  9998
2 62918  42.9985  65.0610 0001791  39.2362 320.8635 15.71107473 42386
Epoch: 2025-10-28T08:52Z
TLE epoch observation values (Epoch: 2025-10-28T08:52:03.579Z)
Latitude
-0.00002°
Longitude
-104.9119°
Altitude
354.566 km
Speed
7.699 km/s
True Right ascension
04h 20m 14s
True Declination
0° 00' 00"
Sunlit
Object was in full shadow at epoch
Visualization orbit readout
Latitude
Unknown
Longitude
Unknown
Altitude
Unknown
Speed
Unknown
Apparent Right ascension
Unknown
Apparent Declination
Unknown
Sunlit
N/A
Visualization observer readout
Local Sidereal Time
06:31:37
Azimuth
Unknown
Elevation
Unknown
Doppler factor
Unknown
Orbital elements
Apogee altitude
358.919 km
Perigee altitude
356.506 km
Semi-major axis
6,735.85 km
Eccentricity
0.00018
Inclination
42.9985°
RAAN
65.061°
Arg. of periapsis
39.2362°
True anomaly
320.85054°
Mean anomaly
320.8635°
Eccentric anomaly
320.85702°
Mean motion
3.92604 °/min
Orbital period
91.7 mins
BSTAR
0.001448
Loading maneuver chart data...
Computing Atmospheric mass density...
Loading historical data...
Loading historical data...
Loading historical data...
Loading historical data...
Loading historical data...
Loading historical data...
Loading historical data...

Documentation

Showing up to 5 results
|